Regional Weather Roundup
Issued by NWS Sterling, VA

Home | Current Version | Previous Version | Graphics & Text | Print | Product List | Glossary On
Versions: 1 2 3 4 5 6 7 8 9 10 11 12 13 14 15 16 17 18 19 20 21 22 23 24 25 26 27 28 29 30 31 32 33 34 35 36 37 38 39 40 41 42 43 44 45 46 47 48 49 50
000
ASUS41 KLWX 171310
RWRLWX

REGIONAL WEATHER ROUNDUP
NATIONAL WEATHER SERVICE BALTIMORE MD/WASHINGTON DC
900 AM EDT WED SEP 17 2014

Note: "FAIR" indicates few or no clouds below 12,000 feet
with no significant weather and/or obstructions to visibility.
 TC=TEMPERATURE CELSIUS

 * =Non NWS site. Station does not report precipitation (e.g. rain,
    snow, etc.), thunder, or fog.

DCZ001-MDZ009-015-VAZ040>042-051-053>054-171400-
WASHINGTON METRO

CITY           SKY/WX    TMP DP  RH WIND       PRES   REMARKS
WASHINGTON NAT MOSUNNY   65  53  65 NE7       30.07S
DULLES         PTSUNNY   58  52  80 NW3       30.08S
ANDREWS AFB    SUNNY     54  50  87 N6        30.04S
QUANTICO       MOSUNNY   65  55  70 N7        30.08R
COLLEGE PARK*  MOSUNNY   61  54  77 CALM      30.07R
LEESBURG*      PTSUNNY   59  54  82 CALM      30.09R
GAITHERSBURG*  MOSUNNY   57  54  88 CALM      30.11S

$$

MDZ006>007-011-014-171400-
BALTIMORE METRO

CITY           SKY/WX    TMP DP  RH WIND       PRES   REMARKS
BWI AIRPORT    MOSUNNY   64  52  64 VRB3      30.06S
MD SCIENCE CTR   N/A     66  50  56 MISG      30.07S
ANNAPOLIS      SUNNY     65  57  75 NW3       30.06S
FORT MEADE*    SUNNY     55  54  94 CALM      30.09S

$$

MDZ012-015-019>023-171400-
MARYLAND EASTERN SHORE

CITY           SKY/WX    TMP DP  RH WIND       PRES   REMARKS
OCEAN CITY     MOSUNNY   70  56  61 NE12      30.04S
SALISBURY      MOSUNNY   66  56  70 NE8       30.04S
BAY BRIDGE AP*   N/A     64  52  63 NE5       30.07R
CAMBRIDGE*     SUNNY     63  54  72 NE5       30.05S
EASTON*        MOSUNNY   64  61  88 CALM      30.10R

$$

MDZ017>025-171400-
SOUTHERN MARYLAND

CITY           SKY/WX    TMP DP  RH WIND       PRES   REMARKS
PATUXENT RIVER MOSUNNY   67  55  65 E10       30.05R
ST INIGOES     SUNNY     67  58  72 NE7       30.04R
LEONARDTOWN*   SUNNY     64  55  72 CALM      30.06S

$$

MDZ003>005-171400-
NORTH CENTRAL MARYLAND

CITY           SKY/WX    TMP DP  RH WIND       PRES   REMARKS
FREDERICK*     SUNNY     57  55  94 CALM      30.11S
HAGERSTOWN APT SUNNY     54  50  86 CALM      30.09R
WESTMINSTER*   SUNNY     57  52  82 CALM      30.08S

$$

MDZ501>502-171400-
WESTERN MARYLAND

CITY           SKY/WX    TMP DP  RH WIND       PRES   REMARKS
OAKLAND*       SUNNY     52 N/A N/A SE7       30.09S
CUMBERLAND*    SUNNY     52  50  93 CALM      30.14S

$$

VAZ025>031-171400-
SHENANDOAH VALLEY

CITY           SKY/WX    TMP DP  RH WIND       PRES   REMARKS
WINCHESTER*    SUNNY     57  50  77 CALM      30.08S
STAUNTON*      NOT AVBL

$$

WVZ021-048>050-054>055-171400-
EASTERN WEST VIRGINIA PANHANDLE

CITY           SKY/WX    TMP DP  RH WIND       PRES   REMARKS
MARTINSBURG    MOSUNNY   54  48  80 CALM      30.09S
PETERSBURG*    CLOUDY    49  47  92 CALM      30.12R

$$

VAZ036>039-050-171400-
CENTRAL FOOTHILLS

CITY           SKY/WX    TMP DP  RH WIND       PRES   REMARKS
CHARLOTTESVILL CLOUDY    59  51  75 CALM      30.07R
ORANGE*        PTSUNNY   61  50  67 NW6       30.08S

$$

VAZ055>057-171400-
NORTH AND CENTRAL PIEDMONT

CITY           SKY/WX    TMP DP  RH WIND       PRES   REMARKS
FREDERICKSBRG* SUNNY     62  53  73 NW3       30.06R
STAFFORD*      MOSUNNY   62  55  76 N5        30.10S

$$

NCZ024-NYZ072-PAZ021-071-VAZ022-071-171400-
OTHER REGIONAL OBSERVATIONS

CITY           SKY/WX    TMP DP  RH WIND       PRES   REMARKS
NEW YORK CITY  SUNNY     60  47  61 N5        30.09R
PHILADELPHIA   MOSUNNY   64  51  62 CALM      30.07R
PITTSBURGH     MOSUNNY   56  50  80 CALM      30.07S
ROANOKE        CLOUDY    61  52  72 NE6       30.08S
RICHMOND       PTSUNNY   66  57  72 N8        30.04R
RALEIGH        PTSUNNY   69  60  73 NE9       30.00R

$$

ANZ530>537-171400-
MARINE OBSERVATIONS

STATION/POSITION TIME  TEMP    WIND        PRES
                       AIR SEA DIR/SP/G
                 (UTC) (F)     (DEG/KT/KT) (MB)
THOMAS PT LIGHT  1300   64 74   60/  8/  9 1019.0R
BALT KEY BRIDGE  1300   63      50/  6/  7 1018.0R
COVE POINT       1300   65      90/ 12/ 14 1017.4R
LEWISETTA        1300   69 73   70/ 10/ 13 1016.8S
SOLOMONS ISLAND  1300      75                N/A
PINEY POINT      1300           80/  6/  8   N/A

$$




USA.gov is the U.S. government's official web portal to all federal, state and local government web resources and services.